Regional Weather Roundup
Issued by NWS Jackson, KY

Home | Current Version | Previous Version | Text Only | Print | Product List | Glossary Off
Versions: 1 2 3 4 5 6 7 8 9 10 11 12 13 14 15 16 17 18 19 20 21 22 23 24 25 26 27

000
ASUS43 KJKL 251110
RWRJKL

EAST KENTUCKY HOURLY WEATHER ROUNDUP
NATIONAL WEATHER SERVICE JACKSON KY
700 AM EDT SAT MAR 25 2017

NOTE: "FAIR" INDICATES FEW OR NO CLOUDS BELOW 12,000 FEET WITH
NO SIGNIFICANT WEATHER AND/OR OBSTRUCTIONS TO VISIBILITY.

* THESE REPORTS ARE NOT UNDER NWS QUALITY CONTROL AND MAY NOT
  REPORT WEATHER SUCH AS PRECIPITATION AND FOG.

KYZ079-080-083-085-087-088-110-112-115-119-120-251200
...EASTERN KENTUCKY...

CITY           SKY/WX    TMP DP  RH WIND       PRES   REMARKS
JACKSON        CLOUDY    61  46  57 S5        30.19R
LONDON         PTCLDY    58  44  60 SE3       30.17S
SOMERSET*      CLEAR     59  45  58 S7        30.17R
MONTICELLO*    CLEAR     62  48  60 SE9G17    30.16R
WILLIAMSBURG*  MOSUNNY   59  46  63 SE7       30.17S
MIDDLESBORO*   MOCLDY    50  47  90 CALM      30.23S
HARLAN APT*    PTSUNNY   57  45  62 CALM      30.22S
PIKE CO APT*   CLOUDY    60  47  62 SE6       30.21S
BIG SANDY APT* CLOUDY    62  49  62 S5        30.20R
MOREHEAD APT*  CLOUDY    59  46  63 SE6       30.18S
ASHLAND*       CLOUDY    43 N/A N/A CALM      30.16S
$$

KYZ035-036-041-042-044-050-067-078-099-251200
...CENTRAL KENTUCKY...

CITY           SKY/WX    TMP DP  RH WIND       PRES   REMARKS
MT STERLING*   PTCLDY    59  46  63 S7        30.17R
FLEMING/MASON* MOCLDY    58  47  67 S10       30.16S
DANVILLE*      CLEAR     55  46  71 S7        30.14R
LEXINGTON      CLEAR     57  46  66 S9        30.13R
FRANKFORT      CLEAR     57  46  66 SE7       30.11R
LOUISVILLE     MOCLDY    59  46  62 SE8       30.08R
LEBANON*         N/A     59  48  67 SE13      30.11R
GLASGOW*       CLEAR     62  48  61 S6        30.09R
BOWLING GREEN  CLOUDY    65  50  58 S15       30.07R
$$

KYZ091>093-OHZ055-061-077-WVZ005-015-034-035-042-251200
...SOUTHERN OHIO/WEST VIRGINIA...

CITY           SKY/WX    TMP DP  RH WIND       PRES   REMARKS
COVINGTON      MOCLDY    57  49  74 S10       30.11R
COLUMBUS       CLOUDY    61  50  67 S7        30.12S
DAYTON         CLOUDY    60  49  66 S13       30.10R
WILMINGTON     PTCLDY    58  49  72 S10       30.12R
HUNTINGTON     CLOUDY    60  48  64 SE3       30.17S
CHARLESTON     CLOUDY    61  48  62 S5        30.19R
PINEVILLE*     CLOUDY    52  46  80 MISG      30.29S
BECKLEY        CLOUDY    56  45  66 CALM      30.25S
BLUEFIELD      CLOUDY    54  43  66 CALM      30.27S
LOGAN CO APT*  CLOUDY    61  46  59 CALM      30.22S
$$

VAZ002-007-008-TNZ017-027-036-066-071-251200
...SOUTHWEST VIRGINIA/EAST TENNESSEE...

CITY           SKY/WX    TMP DP  RH WIND       PRES   REMARKS
WISE*          MOCLDY    55  43  62 CALM      30.27R
JONESVILLE*      N/A     50  46  87 CALM      30.26R
ABINGDON*      CLOUDY    53  47  82 CALM      30.27R
BRISTOL        CLOUDY    51  46  83 CALM      30.25R
MORRISTOWN*    PTSUNNY   52  48  87 CALM      30.22S
SEVIERVILLE*   SUNNY     52  46  82 CALM      30.22S
KNOXVILLE      CLOUDY    58  46  64 CALM      30.22R
LAFOLLETTE*    MOSUNNY   61  46  59 VRB3      30.23S
OAK RIDGE      CLOUDY    53  46  77 SW3       30.24R
CROSSVILLE     CLEAR     58  46  64 S14G26    30.19S
NASHVILLE      MOCLDY    66  52  60 S17G24    30.08R
$$

...KEY TO REMARKS...
VSB - VISIBILITY IN MILES
WCI - WIND CHILL INDEX
HX  - HEAT INDEX

$$




USA.gov is the U.S. government's official web portal to all federal, state and local government web resources and services.